Flag for China Weather past 2 weeks in Nanning, Guangxi, China

Now
55 °F

More clouds than sun.


Feels Like: 55 °F
Forecast: 59 / 68 °F
Wind: 3 mph from North

Location: Nanning Airport

Current Time: Mar 2, 2015 at 12:01:51 PM

Latest Report: Mar 2, 2015 at 11:00 AM


Visibility: 4 mi

Pressure: 30.07 "Hg

Humidity: 82%

Dew point: 50 °F

Location of NanningLocation

Historic Weather in Nanning — Graph

°F

Nanning temperature yesterday

Maximum temperature yesterday: 64 °F (at 12:00 AM)
Minimum temperature yesterday: 54 °F (at 5:00 AM)
Average temperature yesterday: 58 °F

Past Weeks' High & Low Weather Summary

 TemperatureHumidityPressure
High88 °F (Feb 25, 3:00 PM)100% (Feb 16, 12:00 AM)30.27 "Hg (Feb 16, 12:00 AM)
Low54 °F (Mar 1, 5:00 AM)40% (Feb 25, 3:00 PM)29.68 "Hg (Feb 25, 4:00 PM)
Average70 °F83%29.93 "Hg
* Reported Feb 15 10:00 AM — Mar 2 10:00 AM, Nanning, Weather by CustomWeather, © 2015

Note: Actual official high and low records may vary slightly from our data, if they occured in-between our weather recording intervals... More about our weather records

Advertising

Nanning weather history for previous 24 hours

 ConditionsComfort  
Time TempWeatherWind HumidityBarometerVisibility
10:00 AM
Mon, Mar 2
54 °FMore clouds than sun.3 mph77%30.09 "Hg5 mi
9:00 AM54 °FMore clouds than sun.6 mph77%30.07 "HgN/A
8:00 AM54 °FMore clouds than sun.8 mph72%30.07 "HgN/A
7:00 AM54 °FMostly cloudy.8 mph72%30.07 "Hg4 mi
6:00 AM54 °FMostly cloudy.6 mph67%30.04 "HgN/A
5:00 AM54 °FOvercast.8 mph67%30.04 "HgN/A
4:00 AM55 °FOvercast.6 mph63%30.07 "HgN/A
3:00 AM55 °FOvercast.3 mph63%30.07 "HgN/A
2:00 AM55 °FMostly cloudy.8 mph63%30.09 "HgN/A
1:00 AM55 °FMostly cloudy.10 mph67%30.12 "HgN/A
12:00 AM57 °FMostly cloudy.8 mph63%30.12 "HgN/A
11:00 PM
Sun, Mar 1
57 °FOvercast.10 mph63%30.12 "HgN/A
10:00 PM57 °FOvercast.10 mph63%30.12 "HgN/A
9:00 PM57 °FOvercast.10 mph63%30.12 "HgN/A
8:00 PM59 °FOvercast.8 mph63%30.09 "HgN/A
7:00 PM59 °FOvercast.8 mph63%30.09 "HgN/A
6:00 PM61 °FOvercast.6 mph63%30.07 "HgN/A
5:00 PM63 °FOvercast.6 mph56%30.09 "HgN/A
4:00 PM63 °FOvercast.6 mph56%30.09 "HgN/A
3:00 PM61 °FBroken clouds.6 mph63%30.15 "HgN/A
2:00 PM61 °FBroken clouds.8 mph59%30.18 "HgN/A
1:00 PM61 °FBroken clouds.8 mph59%30.21 "HgN/A
12:00 PM59 °FBroken clouds.6 mph63%30.24 "HgN/A
Weather by CustomWeather, © 2015

See weather overviewHow to use our weather pages